Météo par heure à Juripiranga

Ce jour, 17 Juin, Jeudi

Heure Température Précipitation Vent Pression Humidité
00:00 +23°C° 0 mm 2 m/s 752 mmHg 96%
01:00 +23°C° 0 mm 2 m/s 752 mmHg 96%
02:00 +23°C° 0 mm 2 m/s 751 mmHg 96%
03:00 +23°C° 0 mm 2 m/s 751 mmHg 96%
04:00 +23°C° 0 mm 2 m/s 751 mmHg 95%
05:00 +23°C° 0 mm 2 m/s 751 mmHg 95%
06:00 +23°C° 0 mm 2 m/s 752 mmHg 94%
07:00 +23°C° 0 mm 2 m/s 752 mmHg 93%
08:00 +25°C° 0 mm 3 m/s 752 mmHg 84%
09:00 +27°C° 0 mm 4 m/s 753 mmHg 76%
10:00 +29°C° 0 mm 5 m/s 753 mmHg 67%
11:00 +30°C° 0.1 mm 5 m/s 753 mmHg 64%
12:00 +32°C° 0.1 mm 5 m/s 752 mmHg 61%
13:00 +33°C° 0.1 mm 5 m/s 752 mmHg 58%
14:00 +32°C° 0.1 mm 5 m/s 752 mmHg 59%
15:00 +32°C° 0.1 mm 5 m/s 751 mmHg 60%
16:00 +32°C° 0.1 mm 5 m/s 751 mmHg 60%
17:00 +29°C° 0 mm 5 m/s 751 mmHg 68%
18:00 +27°C° 0 mm 4 m/s 751 mmHg 77%
19:00 +26°C° 0 mm 4 m/s 752 mmHg 85%
20:00 +25°C° 0 mm 3 m/s 752 mmHg 88%
21:00 +24°C° 0 mm 3 m/s 752 mmHg 91%
22:00 +24°C° 0 mm 2 m/s 753 mmHg 95%
23:00 +24°C° 0 mm 2 m/s 753 mmHg 95%

Demain, 18 Juin, Vendredi

Heure Température Précipitation Vent Pression Humidité
00:00 +23°C° 0 mm 2 m/s 753 mmHg 95%
01:00 +23°C° 0 mm 2 m/s 753 mmHg 96%
02:00 +23°C° 0 mm 2 m/s 752 mmHg 96%
03:00 +23°C° 0 mm 2 m/s 752 mmHg 96%
04:00 +23°C° 0 mm 2 m/s 752 mmHg 96%
05:00 +23°C° 0 mm 2 m/s 752 mmHg 95%
06:00 +23°C° 0 mm 2 m/s 752 mmHg 95%
07:00 +23°C° 0 mm 2 m/s 753 mmHg 95%
08:00 +25°C° 0 mm 3 m/s 753 mmHg 85%
09:00 +27°C° 0 mm 4 m/s 753 mmHg 76%
10:00 +30°C° 0 mm 5 m/s 754 mmHg 66%
11:00 +30°C° 0.7 mm 5 m/s 753 mmHg 67%
12:00 +30°C° 0.7 mm 5 m/s 753 mmHg 69%
13:00 +30°C° 0.7 mm 5 m/s 753 mmHg 70%
14:00 +30°C° 0.6 mm 5 m/s 752 mmHg 71%
15:00 +29°C° 0.6 mm 5 m/s 752 mmHg 71%
16:00 +29°C° 0.6 mm 5 m/s 752 mmHg 72%
17:00 +28°C° 0.3 mm 4 m/s 752 mmHg 78%
18:00 +26°C° 0.3 mm 3 m/s 753 mmHg 84%
19:00 +25°C° 0.3 mm 3 m/s 753 mmHg 90%
20:00 +24°C° 0 mm 2 m/s 753 mmHg 91%
21:00 +24°C° 0 mm 2 m/s 754 mmHg 93%
22:00 +23°C° 0 mm 2 m/s 754 mmHg 94%
23:00 +23°C° 0 mm 2 m/s 754 mmHg 95%

Après-demain, 19 Juin, Samedi

Heure Température Précipitation Vent Pression Humidité
00:00 +23°C° 0 mm 2 m/s 753 mmHg 95%
01:00 +23°C° 0 mm 2 m/s 753 mmHg 96%
02:00 +23°C° 0 mm 2 m/s 753 mmHg 96%
03:00 +23°C° 0 mm 2 m/s 753 mmHg 96%
04:00 +23°C° 0 mm 2 m/s 752 mmHg 96%
05:00 +23°C° 0 mm 2 m/s 753 mmHg 96%
06:00 +23°C° 0 mm 2 m/s 753 mmHg 96%
07:00 +22°C° 0 mm 3 m/s 753 mmHg 96%
08:00 +25°C° 0 mm 3 m/s 754 mmHg 87%
09:00 +27°C° 0 mm 4 m/s 754 mmHg 79%
10:00 +29°C° 0 mm 4 m/s 754 mmHg 70%
11:00 +30°C° 0 mm 5 m/s 754 mmHg 64%
12:00 +32°C° 0 mm 5 m/s 753 mmHg 57%
13:00 +34°C° 0 mm 5 m/s 753 mmHg 50%
14:00 +33°C° 0.1 mm 5 m/s 753 mmHg 53%
15:00 +32°C° 0.1 mm 6 m/s 752 mmHg 56%
16:00 +32°C° 0.1 mm 6 m/s 752 mmHg 59%
17:00 +29°C° 0.1 mm 5 m/s 752 mmHg 67%
18:00 +27°C° 0.1 mm 4 m/s 753 mmHg 76%
19:00 +25°C° 0.1 mm 3 m/s 753 mmHg 84%
20:00 +25°C° 0 mm 3 m/s 754 mmHg 87%
21:00 +24°C° 0 mm 3 m/s 754 mmHg 90%
22:00 +22°C° 0 mm 3 m/s 754 mmHg 92%
23:00 +22°C° 0 mm 3 m/s 754 mmHg 93%

20 Juin, Dimanche

Heure Température Précipitation Vent Pression Humidité
00:00 +23°C° 0 mm 2 m/s 754 mmHg 94%
01:00 +23°C° 0 mm 2 m/s 753 mmHg 95%
02:00 +21°C° 0 mm 2 m/s 753 mmHg 95%
03:00 +21°C° 0 mm 2 m/s 753 mmHg 94%
04:00 +21°C° 0 mm 2 m/s 752 mmHg 94%
05:00 +21°C° 0 mm 2 m/s 753 mmHg 93%
06:00 +22°C° 0 mm 1 m/s 753 mmHg 93%
07:00 +23°C° 0 mm 1 m/s 753 mmHg 92%
08:00 +25°C° 0 mm 2 m/s 753 mmHg 84%
09:00 +27°C° 0 mm 3 m/s 754 mmHg 77%
10:00 +29°C° 0 mm 3 m/s 754 mmHg 69%
11:00 +29°C° 0.7 mm 4 m/s 753 mmHg 69%
12:00 +29°C° 0.7 mm 4 m/s 753 mmHg 70%
13:00 +30°C° 0.7 mm 5 m/s 752 mmHg 70%
14:00 +30°C° 0.2 mm 5 m/s 752 mmHg 67%
15:00 +30°C° 0.2 mm 5 m/s 752 mmHg 64%
16:00 +30°C° 0.2 mm 5 m/s 751 mmHg 62%
17:00 +29°C° 0 mm 4 m/s 752 mmHg 70%
18:00 +27°C° 0 mm 3 m/s 752 mmHg 79%
19:00 +25°C° 0 mm 2 m/s 752 mmHg 87%
20:00 +25°C° 0 mm 2 m/s 753 mmHg 89%
21:00 +24°C° 0 mm 1 m/s 753 mmHg 90%
22:00 +24°C° 0 mm 1 m/s 753 mmHg 91%
23:00 +24°C° 0.1 mm 1 m/s 753 mmHg 91%

21 Juin, Lundi

Heure Température Précipitation Vent Pression Humidité
00:00 +24°C° 0.1 mm 1 m/s 753 mmHg 91%
01:00 +24°C° 0.1 mm 1 m/s 753 mmHg 91%
02:00 +24°C° 0 mm 1 m/s 752 mmHg 92%
03:00 +23°C° 0 mm 1 m/s 752 mmHg 92%
04:00 +23°C° 0 mm 1 m/s 752 mmHg 92%
05:00 +23°C° 0 mm 1 m/s 752 mmHg 92%
06:00 +23°C° 0 mm 1 m/s 752 mmHg 92%
07:00 +23°C° 0 mm 1 m/s 752 mmHg 91%
08:00 +24°C° 0.1 mm 1 m/s 753 mmHg 87%
09:00 +26°C° 0.1 mm 2 m/s 753 mmHg 83%
10:00 +27°C° 0.1 mm 2 m/s 753 mmHg 78%
11:00 +28°C° 0.5 mm 3 m/s 753 mmHg 77%
12:00 +28°C° 0.5 mm 3 m/s 753 mmHg 75%
13:00 +29°C° 0.5 mm 4 m/s 752 mmHg 74%
14:00 +29°C° 0.8 mm 4 m/s 752 mmHg 72%
15:00 +29°C° 0.8 mm 5 m/s 752 mmHg 69%
16:00 +30°C° 0.8 mm 5 m/s 751 mmHg 67%
17:00 +28°C° 0 mm 4 m/s 751 mmHg 74%
18:00 +26°C° 0 mm 4 m/s 752 mmHg 80%
19:00 +25°C° 0 mm 3 m/s 752 mmHg 87%
20:00 +24°C° 0 mm 2 m/s 752 mmHg 88%
21:00 +24°C° 0 mm 2 m/s 753 mmHg 90%
22:00 +23°C° 0 mm 2 m/s 753 mmHg 91%
23:00 +23°C° 0 mm 2 m/s 753 mmHg 91%

22 Juin, Mardi

Heure Température Précipitation Vent Pression Humidité
00:00 +23°C° 0 mm 1 m/s 752 mmHg 91%
01:00 +23°C° 0 mm 1 m/s 752 mmHg 91%
02:00 +23°C° 0 mm 1 m/s 752 mmHg 91%
03:00 +23°C° 0 mm 1 m/s 752 mmHg 92%
04:00 +22°C° 0 mm 1 m/s 752 mmHg 92%
05:00 +22°C° 0 mm 1 m/s 752 mmHg 92%
06:00 +22°C° 0 mm 1 m/s 752 mmHg 92%
07:00 +23°C° 0 mm 1 m/s 752 mmHg 92%
08:00 +25°C° 0 mm 2 m/s 752 mmHg 83%
09:00 +27°C° 0 mm 3 m/s 753 mmHg 75%
10:00 +29°C° 0 mm 3 m/s 753 mmHg 66%
11:00 +30°C° 0 mm 4 m/s 752 mmHg 61%
12:00 +33°C° 0 mm 4 m/s 752 mmHg 56%
13:00 +34°C° 0 mm 5 m/s 751 mmHg 50%
14:00 +33°C° 0 mm 5 m/s 751 mmHg 54%
15:00 +32°C° 0 mm 5 m/s 751 mmHg 57%
16:00 +32°C° 0 mm 5 m/s 750 mmHg 61%
17:00 +29°C° 0.1 mm 4 m/s 751 mmHg 69%
18:00 +27°C° 0.1 mm 4 m/s 751 mmHg 78%
19:00 +25°C° 0.1 mm 3 m/s 752 mmHg 86%
20:00 +25°C° 0 mm 3 m/s 752 mmHg 89%
21:00 +24°C° 0 mm 3 m/s 752 mmHg 91%
22:00 +24°C° 0 mm 3 m/s 752 mmHg 94%
23:00 +24°C° 0 mm 2 m/s 752 mmHg 94%
Voir plus

Nous avons besoin de votre consentement

Meteoprog et ses fournisseurs de services peuvent stocker et accéder à des données personnelles telles que des cookies, des identifiants d'appareils ou d'autres technologies similaires sur votre appareil et traiter ces données pour personnaliser le contenu et les publicités, ainsi que pour fournir des fonctionnalités de médias sociaux et analyser le trafic.

  • Stocker et/ou accéder à des informations sur votre appareil

    Des cookies, des identifiants d'appareils ou d'autres informations peuvent être stockés ou accessibles sur votre appareil aux fins indiquées ci-dessus.

  • Annonces et contenus personnalisés, mesure des annonces et des contenus, connaissance de l'audience et développement de produits

    Les annonces et le contenu peuvent être personnalisés en fonction d'un profil. D'autres données peuvent être ajoutées pour mieux personnaliser les annonces et le contenu. Les performances des publicités et du contenu peuvent être mesurées. Il est possible d'obtenir des informations sur le public qui a vu les publicités et le contenu. Ces données peuvent être utilisées pour développer ou améliorer l'expérience de l'utilisateur, les systèmes et les logiciels.

En cliquant sur "J'accepte", vous autorisez l'utilisation de cookies, des identifiants d'appareils, des balises web ou d'autres technologies similaires. Vos paramètres peuvent être modifiés dans le navigateur de votre appareil.

Dans certains cas, des intérêts légitimes peuvent être invoqués plutôt qu'un consentement. Vous pouvez en savoir plus à ce sujet dans notre Politique de confidentialité et de cookies.